Location: St. Andrews
(45.0670°N, 67.0330°W)
Time: 16:34:20
(UTC-03:00)

Amateur Radio Satellites - All Passes

Search period start: 27 May 2015 16:04
Search period end: 28 May 2015 16:04
Location: St. Andrews, 45.0670°N, 67.0330°W

Satellite Date Start Highest point End Downlink Frequencies (MHz)
Time Altitude Azimuth
AO-7 27 May 16:12:47 16:21:02 76° 68° (ENE) 16:29:23 29.400- 29.500
DANDE 27 May 16:18:22 16:23:55 19° 307° (NW) 16:29:29 436.750
RS-15 27 May 16:20:29 16:30:43 37° 26° (NNE) 16:41:30 29.354- 29.394
JAS-2 27 May 16:25:18 16:31:58 89° 253° (WSW) 16:37:51 435.910
STARS 27 May 16:25:48 16:30:04 44° 99° (E) 16:34:18 437.465
GONETS M04 27 May 16:51:15 16:56:18 15° 309° (NW) 17:00:54
CUSAT 1 27 May 16:52:05 16:53:28 10° 317° (NW) 16:54:19 437.405
HORYU 2 27 May 16:52:15 16:56:31 41° 262° (W) 17:00:46 437.375
MOZHAYETS 4 27 May 16:56:39 16:58:58 14° 88° (E) 17:01:29
ITUPSAT 1 27 May 16:58:12 17:00:57 15° 300° (WNW) 17:03:33 437.325
KKS-1 27 May 16:59:14 17:03:37 53° 288° (WNW) 17:07:57 437.445
BEESAT 27 May 17:06:05 17:08:13 13° 301° (WNW) 17:10:10 436.000
O/OREOS (USA 219) 27 May 17:11:25 17:15:46 46° 299° (WNW) 17:20:07 437.305
CUTE-I 27 May 17:28:07 17:31:32 18° 60° (ENE) 17:35:08 437.470
Cosmos 2499 27 May 17:46:54 17:53:22 25° 295° (WNW) 17:59:17 435.465 / 435.565
Cubesat XI-IV 27 May 17:47:51 17:52:08 26° 64° (ENE) 17:56:32 437.490
STARS 27 May 18:02:55 18:06:15 21° 296° (WNW) 18:09:27 437.465
AO-7 27 May 18:08:01 18:14:45 26° 269° (W) 18:21:14 29.400- 29.500
BEESAT 2 27 May 18:14:13 18:17:27 23° 115° (ESE) 18:20:49 435.950
JAS-2 27 May 18:14:14 18:17:48 15° 273° (W) 18:20:51 435.910
YUBILEINY 27 May 18:31:09 18:39:14 41° 69° (ENE) 18:47:23 435.215
MOZHAYETS 4 27 May 18:32:10 18:36:43 65° 286° (WNW) 18:41:15
RS-15 27 May 18:33:22 18:45:01 86° 54° (NE) 18:57:10 29.354- 29.394
CUBESAT XI-V 27 May 18:37:03 18:39:16 14° 87° (E) 18:41:43 437.345
Cosmos 2491 27 May 18:40:14 18:46:01 21° 79° (ENE) 18:52:14 435.465 / 435.565
BEESAT 3 27 May 19:01:27 19:05:32 85° 125° (SE) 19:09:40 437.485
CUTE-I 27 May 19:05:48 19:11:06 73° 257° (WSW) 19:16:28 437.470
BRITE-PL 27 May 19:24:12 19:27:55 20° 61° (ENE) 19:31:57 437.365/2234.400
GOMX 1 27 May 19:24:50 19:27:25 14° 58° (ENE) 19:30:17 467.674
Cubesat XI-IV 27 May 19:26:53 19:32:01 47° 261° (W) 19:37:10 437.490
PRISM 27 May 19:43:05 19:46:31 25° 95° (E) 19:50:00 437.425
AIST 2 27 May 19:45:06 19:49:17 58° 121° (ESE) 19:53:30 435.215
BEESAT 2 27 May 19:51:26 19:55:21 40° 312° (NW) 19:59:18 435.950
HO-68 27 May 19:57:16 20:03:20 32° 60° (ENE) 20:09:32 435.675
STRAND 1 27 May 20:09:12 20:14:07 44° 98° (E) 20:19:02 437.568
AUBIESAT-1 27 May 20:10:07 20:10:28 10° 95° (E) 20:10:59 437.475
CUBESAT XI-V 27 May 20:12:35 20:17:17 71° 286° (WNW) 20:21:58 437.345
DOVE 4 27 May 20:20:14 20:24:32 28° 65° (ENE) 20:29:02 437.250
YUBILEINY 27 May 20:28:02 20:36:16 48° 271° (W) 20:44:23 435.215
Cosmos 2491 27 May 20:33:01 20:41:50 88° 279° (W) 20:50:45 435.465 / 435.565
CANX-2 27 May 20:36:12 20:40:00 33° 70° (ENE) 20:43:51 2200.000
CUTE 1.7 + AOD 2 27 May 20:39:39 20:43:26 32° 70° (ENE) 20:47:16 437.475
BEESAT 3 27 May 20:41:27 20:44:07 16° 325° (NW) 20:46:41 437.485
CUBEBUG 2 27 May 20:43:07 20:44:48 12° 60° (ENE) 20:46:43 437.445
RS-15 27 May 20:46:51 20:56:26 29° 255° (WSW) 21:05:50 29.354- 29.394
Oscar 11 27 May 20:52:01 20:54:08 14° 62° (ENE) 20:56:27 145.826/435.025
AIST 1 27 May 20:52:03 20:55:48 32° 91° (E) 20:59:39
GOMX 1 27 May 20:59:31 21:04:43 84° 78° (ENE) 21:10:13 467.674
BRITE-PL 27 May 21:00:45 21:05:53 65° 260° (W) 21:11:25 437.365/2234.400
SEEDS 27 May 21:00:52 21:04:53 44° 72° (ENE) 21:08:55 437.485
COMPASS 1 27 May 21:12:54 21:16:55 48° 73° (ENE) 21:20:59 437.405
Cosmos 2504 27 May 21:13:52 21:20:38 41° 71° (ENE) 21:27:24 435.465 / 435.565
PRISM 27 May 21:18:18 21:21:59 31° 292° (WNW) 21:25:39 437.425
AAUSAT CUBESAT 2 27 May 21:24:21 21:28:25 56° 73° (ENE) 21:32:30 437.432
AIST 2 27 May 21:24:50 21:28:13 22° 321° (NW) 21:31:33 435.215
UWE-3 27 May 21:26:36 21:30:19 24° 66° (ENE) 21:34:05 435.000/436.395/437.385
CINEMA 3 27 May 21:29:27 21:34:21 58° 73° (ENE) 21:39:20 145.822/145.860
FUNcube-1 27 May 21:34:51 21:38:21 23° 66° (ENE) 21:41:56 145.935
M-CUBED/EXP-1 PRIME 27 May 21:34:59 21:38:13 50° 292° (WNW) 21:41:26 437.505
AUBIESAT-1 27 May 21:42:26 21:45:39 47° 293° (WNW) 21:48:50 437.475
HO-68 27 May 21:43:39 21:50:44 59° 258° (WSW) 21:57:50 435.675
DELFI C3 27 May 21:47:01 21:50:37 33° 70° (ENE) 21:54:16 145.870
STRAND 1 27 May 21:48:50 21:53:08 27° 296° (WNW) 21:57:20 437.568
DOVE 4 27 May 21:57:07 22:02:04 44° 263° (W) 22:07:08 437.250
HUMSAT D 27 May 22:03:50 22:07:00 21° 66° (ENE) 22:10:14 437.325/437.525
CANX-2 27 May 22:12:29 22:16:00 24° 267° (W) 22:19:27 2200.000
ZACube-1 27 May 22:14:35 22:19:03 55° 73° (ENE) 22:23:33 437.345
UKube-1 27 May 22:15:44 22:19:23 27° 67° (ENE) 22:23:05 .
CUTE 1.7 + AOD 2 27 May 22:15:53 22:19:26 24° 267° (W) 22:22:53 437.475
CUBEBUG 2 27 May 22:16:02 22:20:50 86° 76° (ENE) 22:25:36 437.445
DX 1 27 May 22:25:15 22:29:14 36° 69° (ENE) 22:33:16 434.975-435.025
Oscar 11 27 May 22:25:32 22:29:51 68° 259° (WSW) 22:34:10 145.826/435.025
AIST 1 27 May 22:30:03 22:33:32 23° 290° (WNW) 22:37:00
Cosmos 2491 27 May 22:33:41 22:40:15 22° 303° (WNW) 22:46:30 435.465 / 435.565
SEEDS 27 May 22:38:01 22:40:57 18° 269° (W) 22:43:45 437.485
CUBEBUG 1 27 May 22:40:14 22:42:35 15° 62° (ENE) 22:45:08 437.445
GOMX 1 27 May 22:40:53 22:43:41 14° 276° (W) 22:46:16 467.674
VELOX 1 27 May 22:42:43 22:46:30 29° 67° (ENE) 22:50:22 145.980
50 SAT 27 May 22:48:32 22:52:05 32° 70° (ENE) 22:55:40 437.505
ESTCUBE 1 27 May 22:49:17 22:52:35 21° 65° (ENE) 22:55:59 437.505/2401.250
COMPASS 1 27 May 22:50:15 22:52:56 16° 270° (W) 22:55:27 437.405
GONETS M04 27 May 23:01:05 23:06:07 17° 53° (NE) 23:11:32
AAUSAT CUBESAT 2 27 May 23:02:10 23:04:26 14° 271° (W) 23:06:32 437.432
UWE-3 27 May 23:02:11 23:06:38 41° 263° (W) 23:11:03 435.000/436.395/437.385
Cosmos 2504 27 May 23:07:26 23:14:00 38° 272° (W) 23:20:25 435.465 / 435.565
CINEMA 3 27 May 23:08:22 23:11:58 19° 271° (W) 23:15:25 145.822/145.860
ANTELSAT 27 May 23:09:56 23:12:54 18° 90° (E) 23:15:58 437.575/2403.000
FUNcube-1 27 May 23:10:04 23:14:27 43° 263° (W) 23:18:48 145.935
AISAT 27 May 23:13:56 23:18:19 60° 73° (ENE) 23:22:45 437.250
SPROUT 27 May 23:17:49 23:18:24 10° 59° (ENE) 23:19:12 437.525
ISS 27 May 23:22:05 23:24:10 16° 135° (SE) 23:26:18 145.825
DELFI C3 27 May 23:22:39 23:25:50 22° 267° (W) 23:28:56 145.870
DANDE 27 May 23:30:01 23:36:20 26° 58° (ENE) 23:41:55 436.750
TISAT 1 27 May 23:36:46 23:38:21 12° 61° (ENE) 23:40:08 437.305
HUMSAT D 27 May 23:38:23 23:42:31 42° 263° (W) 23:46:36 437.325/437.525
TIGRISAT 27 May 23:41:37 23:45:41 37° 97° (E) 23:49:41 435.000
UKube-1 27 May 23:51:35 23:55:27 31° 264° (W) 23:59:18 .
ZACube-1 27 May 23:52:41 23:55:47 17° 271° (W) 23:58:43 437.345
QB50P1 27 May 23:54:07 23:57:35 24° 93° (E) 00:01:06 145.935-145.965
CUSAT 1 27 May 23:55:45 00:02:42 42° 67° (ENE) 00:08:16 437.405
POLYITAN 1 27 May 23:56:32 00:00:07 26° 94° (E) 00:03:43 437.675
CUBEBUG 2 27 May 23:56:33 23:58:14 11° 275° (W) 23:59:38 437.445
DX 1 28 May 00:02:04 00:05:36 23° 267° (W) 00:09:04 434.975-435.025
UNISAT 6 28 May 00:02:15 00:06:38 64° 101° (E) 00:10:54 437.425
CUBEBUG 1 28 May 00:14:09 00:18:29 65° 259° (WSW) 00:22:52 437.445
VELOX 1 28 May 00:19:03 00:23:01 31° 265° (W) 00:26:57 145.980
50 SAT 28 May 00:23:40 00:26:52 22° 267° (W) 00:29:59 437.505
NANOSAT C BR1 28 May 00:24:40 00:28:51 50° 99° (E) 00:32:59 145.865
ESTCUBE 1 28 May 00:24:54 00:29:12 44° 262° (W) 00:33:31 437.505/2401.250
QB50P2 28 May 00:33:18 00:37:35 64° 102° (ESE) 00:41:48 145.880/145.840
POPSAT HIP 1 28 May 00:45:20 00:49:39 84° 103° (ESE) 00:53:55 437.405
ANTELSAT 28 May 00:45:47 00:50:01 45° 289° (WNW) 00:54:07 437.575/2403.000
DUCHIFAT 1 28 May 00:46:31 00:50:49 85° 101° (E) 00:55:04 145.980
PCSat 28 May 00:48:07 00:52:31 27° 110° (ESE) 00:57:01 145.827
SPROUT 28 May 00:49:29 00:53:49 86° 77° (ENE) 00:58:12 437.525
ITUPSAT 1 28 May 00:52:25 00:54:56 15° 60° (ENE) 00:57:38 437.325
AISAT 28 May 00:52:47 00:55:23 15° 271° (W) 00:57:48 437.250
GONETS M04 28 May 00:56:12 01:05:01 71° 78° (ENE) 01:13:44
ISS 28 May 00:57:00 01:00:15 77° 331° (NNW) 01:03:31 145.825
BEESAT 28 May 00:58:59 01:01:58 17° 62° (ENE) 01:05:05 436.000
BUGSAT 1 28 May 01:05:33 01:09:52 86° 284° (WNW) 01:14:07 437.445
SWISSCUBE 28 May 01:07:00 01:10:30 22° 64° (ENE) 01:14:09 437.505
TISAT 1 28 May 01:09:20 01:13:35 78° 257° (WSW) 01:17:53 437.305
DANDE 28 May 01:12:41 01:20:40 74° 263° (W) 01:26:55 436.750
TIGRISAT 28 May 01:18:45 01:22:16 23° 294° (WNW) 01:25:38 435.000
QB50P1 28 May 01:29:39 01:33:32 33° 291° (WNW) 01:37:21 145.935-145.965
POLYITAN 1 28 May 01:32:14 01:36:03 31° 292° (WNW) 01:39:48 437.675
CUSAT 1 28 May 01:38:45 01:45:18 37° 273° (W) 01:50:29 437.405
O/OREOS (USA 219) 28 May 01:40:00 01:44:23 53° 62° (ENE) 01:48:46 437.305
UNISAT 6 28 May 01:40:25 01:42:57 15° 298° (WNW) 01:45:18 437.425
Cosmos 2499 28 May 01:40:41 01:46:17 25° 64° (ENE) 01:52:05 435.465 / 435.565
BEESAT 3 28 May 01:41:25 01:43:57 16° 35° (NE) 01:46:32 437.485
NANOSAT C BR1 28 May 02:01:25 02:04:20 18° 296° (WNW) 02:07:07 145.865
QB50P2 28 May 02:10:37 02:13:00 14° 298° (WNW) 02:15:13 145.880/145.840
VERMONT LUNAR 28 May 02:19:30 02:21:36 16° 158° (SSE) 02:23:45 437.305
POPSAT HIP 1 28 May 02:23:28 02:24:55 11° 300° (WNW) 02:26:12 437.405
KKS-1 28 May 02:23:52 02:27:10 21° 64° (ENE) 02:30:34 437.445
DUCHIFAT 1 28 May 02:24:38 02:26:02 11° 300° (WNW) 02:27:14 145.980
ITUPSAT 1 28 May 02:27:31 02:32:17 76° 257° (WSW) 02:37:05 437.325
AIST 2 28 May 02:27:44 02:29:54 14° 32° (NNE) 02:32:09 435.215
PCSat 28 May 02:30:24 02:35:40 51° 308° (NW) 02:40:59 145.827
BEESAT 2 28 May 02:30:53 02:34:33 30° 44° (NE) 02:38:12 435.950
ISS 28 May 02:34:10 02:37:01 27° 351° (N) 02:39:53 145.825
BEESAT 28 May 02:34:39 02:39:22 64° 259° (W) 02:44:07 436.000
SWISSCUBE 28 May 02:43:29 02:48:05 48° 261° (W) 02:52:42 437.505
BUGSAT 1 28 May 02:44:05 02:44:40 10° 301° (WNW) 02:45:02 437.445
SO-50 28 May 02:48:30 02:51:21 17° 111° (ESE) 02:54:26 436.795
GONETS M04 28 May 02:54:07 03:01:10 27° 278° (W) 03:07:53
DANDE 28 May 02:58:28 03:02:18 14° 285° (WNW) 03:05:25 436.750
PHONESAT 2.4 28 May 03:00:48 03:02:15 12° 152° (SSE) 03:03:44 2401.200-2431.200
Oscar 19 28 May 03:04:09 03:09:21 77° 102° (ESE) 03:14:29 437.125/150
BEESAT 3 28 May 03:18:24 03:22:31 85° 235° (SW) 03:26:33 437.485
O/OREOS (USA 219) 28 May 03:20:30 03:23:26 17° 259° (WSW) 03:26:13 437.305
ITAMSAT 1 28 May 03:20:39 03:25:20 33° 95° (E) 03:30:04 435.822/435.867
STARS 28 May 03:24:24 03:28:42 51° 72° (ENE) 03:33:03 437.465
Cosmos 2499 28 May 03:33:07 03:40:05 63° 266° (W) 03:47:06 435.465 / 435.565
VERMONT LUNAR 28 May 03:55:22 03:58:19 33° 174° (S) 04:01:16 437.305
KKS-1 28 May 03:59:13 04:03:32 45° 261° (W) 04:07:52 437.445
MOZHAYETS 4 28 May 04:00:34 04:03:35 18° 64° (ENE) 04:06:43
Gurwin Techsat 1B 28 May 04:04:05 04:09:26 77° 102° (ESE) 04:14:46 435.225
AIST 2 28 May 04:05:03 04:09:18 71° 53° (NE) 04:13:27 435.215
BEESAT 2 28 May 04:08:56 04:12:39 32° 243° (WSW) 04:16:16 435.950
ISS 28 May 04:11:09 04:14:03 28° 11° (N) 04:16:58 145.825
AO-7 28 May 04:13:18 04:19:08 21° 88° (E) 04:25:18 29.400- 29.500
PCSat 28 May 04:17:48 04:20:28 13° 331° (NNW) 04:23:00 145.827
SO-50 28 May 04:26:40 04:31:23 70° 308° (NW) 04:36:16 436.795
PHONESAT 2.4 28 May 04:36:39 04:39:45 30° 168° (SSE) 04:42:52 2401.200-2431.200
HORYU 2 28 May 04:41:29 04:45:25 31° 96° (E) 04:49:23 437.375
Oscar 19 28 May 04:44:54 04:48:09 17° 300° (WNW) 04:51:12 437.125/150
Cosmos 2491 28 May 04:47:27 04:49:59 12° 46° (NE) 04:53:07 435.465 / 435.565
ITAMSAT 1 28 May 05:00:08 05:04:52 35° 293° (WNW) 05:09:32 435.822/435.867
STARS 28 May 05:02:29 05:05:30 17° 270° (W) 05:08:23 437.465
JAS-2 28 May 05:17:14 05:22:24 65° 102° (ESE) 05:27:42 435.910
VERMONT LUNAR 28 May 05:32:17 05:35:09 30° 190° (S) 05:38:01 437.305
MOZHAYETS 4 28 May 05:35:57 05:40:27 55° 260° (W) 05:44:57
CUBESAT XI-V 28 May 05:42:26 05:45:23 18° 63° (ENE) 05:48:29 437.345
AIST 2 28 May 05:45:15 05:47:22 13° 250° (WSW) 05:49:17 435.215
Gurwin Techsat 1B 28 May 05:45:26 05:48:51 17° 300° (WNW) 05:52:06 435.225
ISS 28 May 05:47:29 05:50:46 88° 211° (SSW) 05:54:02 145.825
STRAND 1 28 May 05:51:56 05:53:39 12° 56° (ENE) 05:55:36 437.568
AO-7 28 May 06:04:41 06:13:06 88° 292° (WNW) 06:21:30 29.400- 29.500
SO-50 28 May 06:09:44 06:12:51 17° 330° (NNW) 06:15:56 436.795
PHONESAT 2.4 28 May 06:14:16 06:17:31 37° 185° (S) 06:20:45 2401.200-2431.200
HORYU 2 28 May 06:18:12 06:22:01 28° 293° (WNW) 06:25:44 437.375
PRISM 28 May 06:35:20 06:38:38 25° 67° (ENE) 06:42:01 437.425
Cosmos 2491 28 May 06:41:05 06:49:40 53° 73° (ENE) 06:58:14 435.465 / 435.565
M-CUBED/EXP-1 PRIME 28 May 06:50:44 06:54:06 26° 64° (ENE) 06:57:20 437.505
AUBIESAT-1 28 May 06:57:44 07:01:07 26° 64° (ENE) 07:04:20 437.475
AIST 1 28 May 06:58:43 06:59:56 11° 63° (ENE) 07:01:24
JAS-2 28 May 07:03:38 07:07:08 18° 299° (WNW) 07:10:28 435.910
VERMONT LUNAR 28 May 07:10:17 07:11:48 13° 206° (SSW) 07:13:15 437.305
CUBESAT XI-V 28 May 07:17:53 07:22:25 58° 260° (W) 07:27:01 437.345
CUTE-I 28 May 07:20:59 07:25:58 39° 97° (E) 07:31:00 437.470
ISS 28 May 07:25:05 07:26:47 13° 226° (SW) 07:28:23 145.825
STRAND 1 28 May 07:27:00 07:32:05 77° 74° (ENE) 07:37:13 437.568
YUBILEINY 28 May 07:34:40 07:42:43 44° 88° (E) 07:50:50 435.215
Cubesat XI-IV 28 May 07:41:47 07:47:06 59° 101° (E) 07:52:24 437.490
PCSat 28 May 07:51:56 07:52:53 10° 23° (NNE) 07:54:00 145.827
PHONESAT 2.4 28 May 07:52:32 07:55:10 20° 201° (SSW) 07:57:47 2401.200-2431.200
AO-7 28 May 07:58:36 08:04:58 24° 310° (NW) 08:11:05 29.400- 29.500
PRISM 28 May 08:10:20 08:13:59 30° 264° (W) 08:17:38 437.425
M-CUBED/EXP-1 PRIME 28 May 08:25:13 08:28:54 29° 258° (WSW) 08:32:19 437.505
AUBIESAT-1 28 May 08:32:16 08:35:51 28° 258° (WSW) 08:39:11 437.475
AIST 1 28 May 08:33:53 08:38:17 79° 263° (W) 08:42:41
Cosmos 2491 28 May 08:38:23 08:46:21 38° 274° (W) 08:54:05 435.465 / 435.565
RS-15 28 May 08:59:55 09:09:48 44° 111° (ESE) 09:20:07 29.354- 29.394
GOMX 1 28 May 09:00:28 09:04:45 25° 90° (E) 09:08:59 467.674
CUTE-I 28 May 09:01:15 09:05:58 32° 295° (WNW) 09:10:38 437.470
BRITE-PL 28 May 09:03:51 09:09:11 41° 95° (E) 09:14:18 437.365/2234.400
STRAND 1 28 May 09:09:13 09:11:59 14° 273° (W) 09:14:30 437.568
HO-68 28 May 09:09:43 09:15:20 25° 91° (E) 09:21:06 435.675
Cubesat XI-IV 28 May 09:22:44 09:26:50 22° 298° (WNW) 09:30:47 437.490
CINEMA 3 28 May 09:25:05 09:26:40 12° 84° (E) 09:28:30 145.822/145.860
YUBILEINY 28 May 09:31:14 09:39:35 45° 289° (WNW) 09:47:50 435.215
PCSat 28 May 09:33:03 09:38:02 36° 47° (NE) 09:43:02 145.827
SO-50 28 May 09:37:41 09:38:28 10° 19° (NNE) 09:39:21 436.795
Cosmos 2504 28 May 09:54:24 10:01:31 35° 87° (E) 10:08:24 435.465 / 435.565
DOVE 4 28 May 09:54:28 09:59:27 49° 97° (E) 10:04:10 437.250
CANX-2 28 May 09:54:51 09:58:57 49° 99° (E) 10:03:02 2200.000
CUTE 1.7 + AOD 2 28 May 09:58:12 10:02:17 48° 98° (E) 10:06:22 437.475
CUBEBUG 2 28 May 10:06:55 10:09:29 15° 88° (E) 10:12:11 437.445
ANTELSAT 28 May 10:10:35 10:14:13 23° 66° (ENE) 10:17:55 437.575/2403.000
Oscar 11 28 May 10:11:43 10:14:44 19° 91° (E) 10:17:50 145.826/435.025
SEEDS 28 May 10:18:38 10:22:49 67° 101° (E) 10:26:58 437.485
COMPASS 1 28 May 10:29:42 10:33:52 72° 101° (ESE) 10:38:00 437.405
GOMX 1 28 May 10:37:58 10:43:10 48° 290° (WNW) 10:48:04 467.674
AAUSAT CUBESAT 2 28 May 10:40:40 10:44:50 81° 102° (ESE) 10:48:58 437.432
TIGRISAT 28 May 10:41:50 10:46:16 44° 71° (ENE) 10:50:40 435.000
BRITE-PL 28 May 10:42:32 10:47:33 32° 294° (WNW) 10:52:18 437.365/2234.400
QB50P1 28 May 10:48:52 10:52:19 25° 67° (ENE) 10:55:52 145.935-145.965
UWE-3 28 May 10:50:22 10:54:23 34° 96° (E) 10:58:18 435.000/436.395/437.385
POLYITAN 1 28 May 10:51:30 10:55:05 27° 67° (ENE) 10:58:44 437.675
HO-68 28 May 10:56:36 11:03:43 68° 291° (WNW) 11:10:47 435.675
FUNcube-1 28 May 10:56:47 11:00:37 31° 95° (E) 11:04:24 145.935
DELFI C3 28 May 10:58:53 11:02:43 41° 98° (E) 11:06:33 145.870
CINEMA 3 28 May 10:59:52 11:04:39 78° 284° (WNW) 11:09:10 145.822/145.860
UNISAT 6 28 May 11:02:37 11:07:17 73° 75° (ENE) 11:11:55 437.425
RS-15 28 May 11:11:04 11:21:54 62° 315° (NW) 11:33:04 29.354- 29.394
SO-50 28 May 11:16:11 11:20:37 31° 42° (NE) 11:25:02 436.795
PCSat 28 May 11:16:28 11:21:31 40° 247° (WSW) 11:26:31 145.827
NANOSAT C BR1 28 May 11:18:54 11:23:01 48° 72° (ENE) 11:27:11 145.865
HUMSAT D 28 May 11:20:46 11:24:16 26° 94° (E) 11:27:46 437.325/437.525
QB50P2 28 May 11:27:51 11:32:05 62° 74° (ENE) 11:36:22 145.880/145.840
CANX-2 28 May 11:31:43 11:34:33 17° 295° (WNW) 11:37:15 2200.000
DOVE 4 28 May 11:32:49 11:36:52 23° 296° (WNW) 11:40:40 437.250
CUTE 1.7 + AOD 2 28 May 11:35:02 11:37:53 18° 295° (WNW) 11:40:37 437.475
UKube-1 28 May 11:36:37 11:40:39 36° 97° (E) 11:44:41 .
ZACube-1 28 May 11:37:37 11:41:59 87° 99° (E) 11:46:14 437.345
POPSAT HIP 1 28 May 11:39:42 11:44:00 81° 76° (ENE) 11:48:20 437.405
DUCHIFAT 1 28 May 11:40:28 11:44:44 81° 76° (ENE) 11:49:03 145.980
CUBEBUG 2 28 May 11:42:15 11:46:39 54° 287° (WNW) 11:50:51 437.445
ANTELSAT 28 May 11:46:20 11:50:48 42° 262° (W) 11:55:12 437.575/2403.000
Cosmos 2504 28 May 11:46:42 11:54:44 52° 285° (WNW) 12:02:12 435.465 / 435.565
Oscar 11 28 May 11:47:03 11:51:10 43° 288° (WNW) 11:55:13 145.826/435.025
DX 1 28 May 11:47:18 11:51:36 51° 100° (E) 11:55:53 434.975-435.025
SEEDS 28 May 11:56:05 11:58:08 13° 298° (WNW) 12:00:02 437.485
BUGSAT 1 28 May 11:57:11 12:01:22 85° 76° (ENE) 12:05:37 437.445
50 SAT 28 May 11:57:17 12:00:53 35° 97° (E) 12:04:27 437.505
CUBEBUG 1 28 May 12:01:42 12:04:59 20° 92° (E) 12:08:22 437.445
VELOX 1 28 May 12:06:58 12:11:15 42° 98° (E) 12:15:30 145.980
COMPASS 1 28 May 12:07:15 12:09:02 12° 298° (WNW) 12:10:40 437.405
GONETS M04 28 May 12:07:48 12:12:18 16° 76° (ENE) 12:17:22
ESTCUBE 1 28 May 12:15:31 12:19:36 32° 96° (E) 12:23:41 437.505/2401.250
AAUSAT CUBESAT 2 28 May 12:18:41 12:19:53 11° 299° (WNW) 12:20:53 437.432
TIGRISAT 28 May 12:19:34 12:23:13 22° 268° (W) 12:26:45 435.000
QB50P1 28 May 12:24:08 12:28:03 34° 264° (W) 12:31:59 145.935-145.965
POLYITAN 1 28 May 12:27:01 12:30:54 31° 264° (W) 12:34:46 437.675
UWE-3 28 May 12:27:10 12:30:46 24° 294° (WNW) 12:34:13 435.000/436.395/437.385
FUNcube-1 28 May 12:33:14 12:36:52 26° 293° (WNW) 12:40:23 145.935
DELFI C3 28 May 12:34:45 12:37:34 18° 294° (WNW) 12:40:16 145.870
SPROUT 28 May 12:35:54 12:37:56 13° 88° (E) 12:40:10 437.525
AISAT 28 May 12:39:00 12:43:32 87° 285° (WNW) 12:48:02 437.250
CINEMA 3 28 May 12:39:55 12:41:01 11° 303° (WNW) 12:41:52 145.822/145.860
DANDE 28 May 12:41:35 12:47:30 27° 83° (E) 12:54:16 436.750
UNISAT 6 28 May 12:42:20 12:44:38 13° 273° (W) 12:46:43 437.425
Oscar 19 28 May 12:45:36 12:49:14 20° 62° (ENE) 12:53:01 437.125/150
HO-68 28 May 12:46:12 12:50:19 16° 310° (NW) 12:54:08 435.675
TISAT 1 28 May 12:53:18 12:55:36 15° 89° (E) 12:58:05 437.305
NANOSAT C BR1 28 May 12:56:18 12:59:10 17° 270° (W) 13:01:55 145.865
HUMSAT D 28 May 12:56:23 13:00:01 29° 292° (WNW) 13:03:34 437.325/437.525
SO-50 28 May 12:56:35 13:01:21 46° 241° (WSW) 13:06:00 436.795
CUSAT 1 28 May 13:01:34 13:08:38 45° 90° (E) 13:16:28 437.405
QB50P2 28 May 13:06:17 13:08:28 13° 272° (W) 13:10:28 145.880/145.840
UKube-1 28 May 13:13:05 13:16:37 24° 294° (WNW) 13:20:04 .
ZACube-1 28 May 13:16:27 13:17:42 11° 300° (WNW) 13:18:45 437.345
POPSAT HIP 1 28 May 13:20:14 13:20:33 10° 274° (W) 13:20:36 437.405
DX 1 28 May 13:24:27 13:27:31 18° 297° (WNW) 13:30:27 434.975-435.025
RS-15 28 May 13:27:43 13:37:10 30° 346° (NNW) 13:46:53 29.354- 29.394
AO-7 28 May 13:30:21 13:31:01 10° 35° (NE) 13:32:07 29.400- 29.500
50 SAT 28 May 13:32:33 13:35:23 19° 294° (WNW) 13:38:08 437.505
CUBEBUG 1 28 May 13:37:20 13:41:34 42° 289° (WNW) 13:45:45 437.445
VELOX 1 28 May 13:44:04 13:47:34 22° 295° (WNW) 13:50:57 145.980
Gurwin Techsat 1B 28 May 13:49:05 13:53:00 22° 62° (ENE) 13:57:04 435.225
Cosmos 2504 28 May 13:49:07 13:50:21 10° 310° (NW) 13:51:00 435.465 / 435.565
ESTCUBE 1 28 May 13:52:29 13:56:24 28° 293° (WNW) 14:00:14 437.505/2401.250
GONETS M04 28 May 13:59:00 14:07:48 76° 96° (E) 14:16:40
SPROUT 28 May 14:10:12 14:14:31 63° 286° (WNW) 14:18:48 437.525
AISAT 28 May 14:18:01 14:19:28 11° 301° (WNW) 14:20:42 437.250
Cosmos 2499 28 May 14:21:23 14:26:30 20° 82° (E) 14:31:45 435.465 / 435.565
DANDE 28 May 14:22:28 14:29:56 75° 283° (WNW) 14:38:33 436.750
Oscar 19 28 May 14:23:01 14:28:11 62° 259° (W) 14:33:22 437.125/150
ITUPSAT 1 28 May 14:26:39 14:30:28 24° 93° (E) 14:34:23 437.325
TISAT 1 28 May 14:27:35 14:31:48 56° 287° (WNW) 14:35:57 437.305
BEESAT 28 May 14:33:11 14:37:15 28° 94° (E) 14:41:23 436.000
ITAMSAT 1 28 May 14:40:29 14:45:35 62° 71° (ENE) 14:50:43 435.822/435.867
SWISSCUBE 28 May 14:41:43 14:46:08 36° 97° (E) 14:50:34 437.505
CUSAT 1 28 May 14:43:58 14:51:22 47° 291° (WNW) 14:59:20 437.405
AO-7 28 May 15:14:14 15:21:33 38° 58° (ENE) 15:29:02 29.400- 29.500
Gurwin Techsat 1B 28 May 15:27:24 15:32:38 57° 260° (W) 15:37:53 435.225
JAS-2 28 May 15:31:14 15:37:03 38° 68° (ENE) 15:42:21 435.910
HORYU 2 28 May 15:41:31 15:45:39 38° 69° (ENE) 15:49:49 437.375
RS-15 28 May 15:44:06 15:53:57 33° 20° (NNE) 16:04:20 29.354- 29.394
KKS-1 28 May 15:48:27 15:52:22 29° 95° (E) 15:56:18 437.445
O/OREOS (USA 219) 28 May 15:54:15 15:58:29 41° 108° (ESE) 16:02:44 437.305
